Location: Key Biscayne
(25.6930°N, 80.1630°W)
Time: 21:22:05
(UTC-05:00)

Vanguard 1 - Pass Details

Date: 17 November 2017
Orbit: 650 x 3833 km, 34.2° (Epoch: 09 December)

Event Time Altitude Azimuth Distance (km) Brightness Sun altitude
Rises 17:54:52 0° 272° (W) 3,211 14.3 -5.9°
Reaches altitude 10° 17:57:34 10° 282° (WNW) 2,128 12.9 -6.4°
Maximum altitude 18:01:45 35° 349° (N) 1,051 10.2 -7.3°
Drops below altitude 10° 18:06:01 10° 56° (NE) 2,165 11.2 -8.3°
Enters shadow 18:06:13 - 57° (ENE) 2,243 11.3 -8.3°
